CAPE
1278 1125 1073 1031 974 873 784 733 715 720 714 669 616 526 514 493 516 574 566 504 402 331 0 0 0 0 0 0 0 0 0 0 0 0 0 0 0 0 0 0 0 0
1265 1182 1089 1029 919 812 738 707 692 662 634 588 583 564 506 522 556 534 520 447 379 22 0 0 0 0 0 0 0 0 0 0 0 0 0 0 0 0 0 0 0 0
1240 1124 1034 973 863 775 733 709 721 706 702 607 407 473 526 542 574 525 472 388 240 91 0 0 0 0 0 0 0 0 0 0 0 0 0 0 0 0 0 0 0 0
1265 1160 1054 973 882 778 722 717 690 664 675 561 346 415 528 584 528 508 428 33 23 35 0 0 0 0 0 0 0 0 0 0 0 0 0 0 0 0 0 0 0 0
1308 1237 1150 1028 894 796 762 717 653 668 666 273 354 449 489 490 496 437 89 0 0 0 1 3 0 0 0 0 0 0 0 0 0 0 0 0 0 0 0 0 0 0
1411 1337 1198 1040 918 835 771 689 688 648 99 2 392 447 490 479 375 136 0 0 0 5 4 0 0 0 0 0 0 0 0 0 0 0 0 0 0 0 0 0 0 0
1388 1277 1099 959 875 791 746 742 672 309 102 357 443 476 445 434 288 0 0 0 62 1 0 0 0 0 0 0 0 0 0 0 0 0 0 0 0 0 0 0 0 0
1180 1029 927 839 741 744 793 816 605 486 374 430 449 434 435 424 336 191 95 2 40 0 0 0 0 0 0 0 0 0 0 0 0 0 0 0 0 0 0 0 0 0
1062 855 786 686 670 771 919 897 814 618 386 422 428 444 422 370 240 179 82 19 0 0 0 0 0 0 0 0 0 0 0 0 0 0 0 0 0 0 0 0 0 0
1046 903 812 673 693 653 805 876 724 307 353 422 477 474 410 271 145 102 9 0 0 0 0 0 0 0 0 0 0 0 0 0 0 0 0 0 0 0 0 0 0 0
965 822 734 688 622 517 570 719 464 353 401 468 495 481 341 163 0 0 0 0 0 0 0 0 0 0 0 0 0 0 0 0 0 0 0 0 0 0 0 0 0 0
742 743 738 664 538 472 623 574 440 467 490 495 485 429 289 158 0 0 0 0 0 0 0 0 0 0 0 0 0 0 0 0 0 0 0 0 0 0 0 0 0 0
750 750 812 756 531 458 566 532 517 489 506 507 476 382 250 183 0 0 0 0 0 0 0 0 0 0 0 0 0 0 0 0 0 0 0 0 0 0 0 0 0 0
774 738 818 716 500 465 533 539 529 483 492 479 404 283 220 0 0 0 0 0 0 0 0 0 0 0 0 0 0 0 0 0 0 0 0 0 0 0 0 0 0 0
675 705 708 602 423 496 555 555 506 482 472 426 314 0 0 0 0 0 0 0 0 0 0 0 0 0 0 0 0 0 0 0 0 0 0 0 0 0 0 0 0 0
662 640 579 420 464 518 553 544 490 486 472 417 289 0 0 0 0 0 0 0 0 0 0 0 0 0 0 0 0 0 0 0 0 0 0 0 0 0 0 0 0 0
700 662 548 585 487 445 532 540 503 491 474 417 172 0 0 0 0 0 0 0 0 0 0 0 0 0 0 0 0 0 0 0 0 0 0 0 0 0 0 0 0 0
709 666 667 650 635 432 519 526 496 495 489 415 165 0 0 0 0 0 0 0 0 0 0 0 0 0 0 0 0 0 0 0 0 0 0 0 0 0 0 0 1 0
729 659 749 790 828 553 492 524 501 482 465 358 0 0 0 0 0 0 0 0 0 0 0 0 0 0 0 0 0 0 0 0 0 0 0 0 0 0 0 2 5 1
701 662 803 745 882 742 612 528 495 461 416 349 0 0 0 0 0 0 0 0 0 0 0 0 0 0 0 0 0 0 0 0 0 0 0 0 0 0 0 2 2 0
707 520 640 819 866 786 648 539 473 418 391 366 266 0 0 0 0 0 0 0 0 0 0 0 0 0 0 0 0 0 0 0 0 0 0 0 0 0 2 0 0 0
716 599 638 835 900 773 653 526 401 355 321 329 322 132 0 0 0 0 0 0 0 0 0 0 0 0 0 0 0 0 0 0 0 0 0 0 0 0 0 0 0 0
734 752 816 839 804 696 592 497 364 304 278 230 229 194 0 0 0 0 0 0 0 0 0 0 0 0 0 0 0 0 0 0 2 4 2 0 0 0 0 0 0 0
797 830 826 783 782 592 478 421 338 294 262 177 171 205 211 0 0 0 0 0 0 0 0 0 0 0 0 0 0 3 8 8 5 7 2 1 1 0 0 0 0 0
807 817 758 746 829 544 425 461 358 278 209 163 123 82 74 165 42 0 0 0 0 0 0 0 0 0 0 0 0 42 23 5 1 0 0 0 0 0 0 0 0 0
799 774 713 752 780 456 415 480 388 241 184 148 110 74 55 43 22 16 9 12 10 4 9 7 2 0 0 0 3 0 0 0 0 0 0 2 1 5 1 0 0 0
Wind_Speed
28 27 27 24 23 23 25 25 25 25 23 22 23 22 23 22 21 22 22 22 23 24 nan nan nan nan nan nan nan nan nan nan nan nan nan nan nan nan nan nan nan nan
28 27 24 24 24 23 24 25 25 25 23 22 21 23 22 22 21 22 22 22 22 nan nan nan nan nan nan nan nan nan nan nan nan nan nan nan nan nan nan nan nan nan
27 26 25 25 24 25 26 25 25 24 23 21 21 22 22 20 22 21 21 21 20 nan nan nan nan nan nan nan nan nan nan nan nan nan nan nan nan nan nan nan nan nan
25 24 24 24 24 26 26 25 24 22 20 21 21 21 21 19 21 21 20 nan nan nan nan nan nan nan nan nan nan nan nan nan nan nan nan nan nan nan nan nan nan nan
23 23 23 23 23 25 25 25 23 20 19 20 21 20 19 19 20 20 nan nan nan nan nan nan nan nan nan nan nan nan nan nan nan nan nan nan nan nan nan nan nan nan
21 22 22 23 24 25 24 23 20 19 nan nan 20 17 16 16 17 18 nan nan nan nan nan nan nan nan nan nan nan nan nan nan nan nan nan nan nan nan nan nan nan nan
21 21 22 22 24 24 23 20 17 17 18 17 16 15 15 15 16 nan nan nan nan nan nan nan nan nan nan nan nan nan nan nan nan nan nan nan nan nan nan nan nan nan
20 20 21 22 23 23 21 17 16 15 16 16 16 15 15 16 16 14 nan nan nan nan nan nan nan nan nan nan nan nan nan nan nan nan nan nan nan nan nan nan nan nan
20 20 21 22 23 21 18 16 15 15 15 17 16 15 14 15 14 13 nan nan nan nan nan nan nan nan nan nan nan nan nan nan nan nan nan nan nan nan nan nan nan nan
20 20 21 21 21 19 17 15 15 15 16 17 16 15 15 13 12 11 nan nan nan nan nan nan nan nan nan nan nan nan nan nan nan nan nan nan nan nan nan nan nan nan
20 20 20 20 19 17 17 16 16 16 16 17 16 14 13 12 nan nan nan nan nan nan nan nan nan nan nan nan nan nan nan nan nan nan nan nan nan nan nan nan nan nan
19 19 19 20 19 17 17 17 16 16 16 15 14 14 12 12 nan nan nan nan nan nan nan nan nan nan nan nan nan nan nan nan nan nan nan nan nan nan nan nan nan nan
19 18 18 19 18 17 17 16 15 15 16 15 12 13 13 13 nan nan nan nan nan nan nan nan nan nan nan nan nan nan nan nan nan nan nan nan nan nan nan nan nan nan
18 18 18 19 18 18 16 15 14 14 14 14 13 13 13 nan nan nan nan nan nan nan nan nan nan nan nan nan nan nan nan nan nan nan nan nan nan nan nan nan nan nan
18 18 18 19 19 17 16 14 13 13 14 14 13 nan nan nan nan nan nan nan nan nan nan nan nan nan nan nan nan nan nan nan nan nan nan nan nan nan nan nan nan nan
18 18 18 20 19 16 15 14 14 13 14 14 14 nan nan nan nan nan nan nan nan nan nan nan nan nan nan nan nan nan nan nan nan nan nan nan nan nan nan nan nan nan
19 18 19 19 18 17 15 15 14 14 14 14 15 nan nan nan nan nan nan nan nan nan nan nan nan nan nan nan nan nan nan nan nan nan nan nan nan nan nan nan nan nan
18 19 19 19 19 17 16 16 16 16 15 15 16 nan nan nan nan nan nan nan nan nan nan nan nan nan nan nan nan nan nan nan nan nan nan nan nan nan nan nan nan nan
18 18 19 19 19 18 17 17 17 17 17 17 nan nan nan nan nan nan nan nan nan nan nan nan nan nan nan nan nan nan nan nan nan nan nan nan nan nan nan nan nan nan
18 18 18 19 19 19 18 18 18 18 18 18 nan nan nan nan nan nan nan nan nan nan nan nan nan nan nan nan nan nan nan nan nan nan nan nan nan nan nan nan nan nan
18 17 18 19 19 19 19 19 19 19 19 19 20 nan nan nan nan nan nan nan nan nan nan nan nan nan nan nan nan nan nan nan nan nan nan nan nan nan nan nan nan nan
18 17 18 19 19 18 18 19 18 19 20 20 21 21 nan nan nan nan nan nan nan nan nan nan nan nan nan nan nan nan nan nan nan nan nan nan nan nan nan nan nan nan
18 18 18 19 18 18 18 18 19 19 20 21 22 22 nan nan nan nan nan nan nan nan nan nan nan nan nan nan nan nan nan nan nan nan nan nan nan nan nan nan nan nan
20 19 19 19 18 17 17 18 19 20 21 22 24 25 25 nan nan nan nan nan nan nan nan nan nan nan nan nan nan nan nan nan nan nan nan nan nan nan nan nan nan nan
21 20 19 18 17 16 18 19 21 22 23 24 24 nan nan 28 nan nan nan nan nan nan nan nan nan nan nan nan nan nan nan nan nan nan nan nan nan nan nan nan nan nan
19 19 18 17 17 18 19 21 24 25 25 26 26 nan nan nan nan nan nan nan nan nan nan nan nan nan nan nan nan nan nan nan nan nan nan nan nan nan nan nan nan nan
Wind_Direction
293 295 299 300 299 299 300 301 300 300 298 294 292 290 288 287 286 285 283 280 277 275 nan nan nan nan nan nan nan nan nan nan nan nan nan nan nan nan nan nan nan nan
294 296 294 293 292 292 292 294 297 298 297 292 288 287 285 287 288 288 288 283 276 nan nan nan nan nan nan nan nan nan nan nan nan nan nan nan nan nan nan nan nan nan
292 293 296 298 298 298 295 291 293 293 291 287 285 288 290 291 290 286 281 280 281 nan nan nan nan nan nan nan nan nan nan nan nan nan nan nan nan nan nan nan nan nan
291 294 295 294 293 294 292 292 291 289 285 286 290 292 294 293 290 287 284 nan nan nan nan nan nan nan nan nan nan nan nan nan nan nan nan nan nan nan nan nan nan nan
289 289 289 290 288 288 290 292 294 293 292 289 289 294 296 294 290 285 nan nan nan nan nan nan nan nan nan nan nan nan nan nan nan nan nan nan nan nan nan nan nan nan
283 286 288 288 289 289 290 293 293 293 nan nan 296 296 295 294 295 291 nan nan nan nan nan nan nan nan nan nan nan nan nan nan nan nan nan nan nan nan nan nan nan nan
287 285 284 282 284 286 288 290 288 288 290 290 293 300 295 292 296 nan nan nan nan nan nan nan nan nan nan nan nan nan nan nan nan nan nan nan nan nan nan nan nan nan
285 279 279 279 282 283 284 285 286 287 287 291 301 302 298 295 294 293 nan nan nan nan nan nan nan nan nan nan nan nan nan nan nan nan nan nan nan nan nan nan nan nan
278 276 276 280 282 282 284 283 282 282 287 297 303 303 298 298 297 295 nan nan nan nan nan nan nan nan nan nan nan nan nan nan nan nan nan nan nan nan nan nan nan nan
275 274 278 279 281 280 283 279 280 285 292 300 304 304 303 299 300 300 nan nan nan nan nan nan nan nan nan nan nan nan nan nan nan nan nan nan nan nan nan nan nan nan
274 276 280 281 280 277 281 280 283 290 298 305 306 306 305 303 nan nan nan nan nan nan nan nan nan nan nan nan nan nan nan nan nan nan nan nan nan nan nan nan nan nan
275 277 282 283 279 275 278 282 287 295 301 305 307 306 302 304 nan nan nan nan nan nan nan nan nan nan nan nan nan nan nan nan nan nan nan nan nan nan nan nan nan nan
276 278 278 277 274 272 272 279 289 297 303 306 303 301 302 304 nan nan nan nan nan nan nan nan nan nan nan nan nan nan nan nan nan nan nan nan nan nan nan nan nan nan
273 273 272 270 267 269 273 279 286 295 300 298 296 299 303 nan nan nan nan nan nan nan nan nan nan nan nan nan nan nan nan nan nan nan nan nan nan nan nan nan nan nan
266 265 264 264 266 269 273 279 285 292 295 296 295 nan nan nan nan nan nan nan nan nan nan nan nan nan nan nan nan nan nan nan nan nan nan nan nan nan nan nan nan nan
265 263 264 265 267 271 274 276 281 288 293 296 299 nan nan nan nan nan nan nan nan nan nan nan nan nan nan nan nan nan nan nan nan nan nan nan nan nan nan nan nan nan
263 262 264 268 270 270 271 275 278 280 286 291 293 nan nan nan nan nan nan nan nan nan nan nan nan nan nan nan nan nan nan nan nan nan nan nan nan nan nan nan nan nan
262 264 267 268 269 273 276 274 272 275 280 284 287 nan nan nan nan nan nan nan nan nan nan nan nan nan nan nan nan nan nan nan nan nan nan nan nan nan nan nan nan nan
262 266 268 268 270 272 274 273 275 277 278 281 nan nan nan nan nan nan nan nan nan nan nan nan nan nan nan nan nan nan nan nan nan nan nan nan nan nan nan nan nan nan
262 265 267 268 269 272 274 276 278 283 283 283 nan nan nan nan nan nan nan nan nan nan nan nan nan nan nan nan nan nan nan nan nan nan nan nan nan nan nan nan nan nan
262 264 266 267 270 273 277 281 284 284 287 285 286 nan nan nan nan nan nan nan nan nan nan nan nan nan nan nan nan nan nan nan nan nan nan nan nan nan nan nan nan nan
262 263 265 268 272 274 280 284 285 289 292 286 286 286 nan nan nan nan nan nan nan nan nan nan nan nan nan nan nan nan nan nan nan nan nan nan nan nan nan nan nan nan
261 264 265 269 272 277 280 283 286 288 286 283 286 284 nan nan nan nan nan nan nan nan nan nan nan nan nan nan nan nan nan nan nan nan nan nan nan nan nan nan nan nan
257 262 266 269 272 280 283 282 282 279 282 282 286 286 284 nan nan nan nan nan nan nan nan nan nan nan nan nan nan nan nan nan nan nan nan nan nan nan nan nan nan nan
255 259 264 270 276 279 280 282 282 281 278 279 280 nan nan 276 nan nan nan nan nan nan nan nan nan nan nan nan nan nan nan nan nan nan nan nan nan nan nan nan nan nan
255 261 265 271 274 272 270 273 271 273 277 278 276 nan nan nan nan nan nan nan nan nan nan nan nan nan nan nan nan nan nan nan nan nan nan nan nan nan nan nan nan nan